STARLINK-2267 (48031 NORAD) Tracking and Keplerian Element Data

This shows tracking and keplerian element data for the satellite.

Feedback or suggestion? Click here.




ElementValue
Catalog48031
NameSTARLINK-2267
Epoch Orbit198
Epoch Day173.91668981
Epoch Year2021
RAAN114.2522
Inclination53.045
Eccentricity0.0001933
Argument of Perigee34.3915
Mean Anonmoly135.4143
Mean Motion15.72972554
Decay Rate0.00407161
L11 48031U 21024BG 21173.91668981 .00407161 00000-0 27936-2 0 9995
L22 48031 53.0450 114.2522 0001933 34.3915 135.4143 15.72972554 1989

Live tracking and technical data element details for STARLINK-2267 (NORAD 48031). STARLINK-2267 can be tracked NOW for your location showing map with azimuth and elevation plus other details from your city location.

Track the satellite on the map from your city or location and see movement details for azimuth, elevation, latitude, longitude, range, height, and movement on the map or in text.







IsCatalogInMostPopularTable: catalog: 48031, numindb: 44
Update: records affected: 1



GetName: 48031 STARLINK-2267

Hit Count: updated at: Thu, 24 Jun 2021 02:38:26 GMT